[[{"header":{"parameterUnit":"m.s-1","parameterCategory":1,"la1":30.2991,"la2":30.254,"lo1":-89.0895,"lo2":-89.0444,"dy":0.0017,"dx":0.0017,"nx":28,"ny":28,"refTime":"2025-09-17T09:00:00:Z","depth":0,"parameterNumber":2,"parameterNumberName":"U-component_of_WINDS"},"data":[0,0,0,0,0,0,0,0,0,0,0,0,0,0,0,0,0,0,0,0,0,0,0,0,0,0,0,0,0,0,0,0,0,0,0,0,0,0,0,0,0,0,0,0,0,0,0,0,0,0,0,0,0,0,0,0,0,0,-2.2428,-2.2428,0,-2.2373,-2.2372,-2.2372,-2.2312,-2.2311,-2.231,-2.2309,-2.2252,-2.2252,-2.2251,0,0,0,0,0,0,0,0,0,0,0,0,0,-2.2484,-2.2483,-2.2428,-2.2427,-2.2427,-2.2373,-2.2372,-2.2371,-2.2312,-2.2311,-2.231,-2.2309,-2.2252,-2.2252,-2.2251,0,0,0,0,0,0,0,0,0,0,0,0,0,-2.2447,-2.2483,-2.2428,-2.2391,-2.2387,-2.2373,-2.2372,-2.2371,-2.2312,-2.2311,-2.231,-2.2309,-2.2253,-2.2252,-2.2251,-2.2269,0,0,-2.2247,-2.2247,0,0,0,0,0,0,0,0,-2.245,-2.2445,-2.2397,-2.2393,-2.2389,-2.2348,-2.2371,-2.2337,-2.2313,-2.2341,-2.2309,-2.2308,-2.2285,-2.2281,-2.2274,-2.2267,-2.2264,-2.2247,-2.2246,-2.2246,-2.2246,0,0,0,0,0,0,0,-2.2452,-2.2447,-2.2406,-2.2396,-2.2391,-2.2377,-2.2371,-2.2364,-2.2321,-2.2338,-2.2334,-2.2328,-2.2283,-2.2275,-2.2272,-2.2263,-2.2247,-2.2246,-2.2246,-2.2245,-2.2272,-2.2273,0,0,0,0,0,0,-2.246,-2.245,-2.2408,-2.2405,-2.2417,-2.2377,-2.237,-2.2362,-2.232,-2.2313,-2.2329,-2.2325,-2.2277,-2.2273,-2.227,-2.229,-2.2246,-2.2245,-2.2244,-2.227,-2.2272,-2.2274,0,0,0,0,0,0,-2.2462,-2.2457,-2.241,-2.2426,-2.2419,-2.2378,-2.237,-2.2362,-2.2354,-2.2314,-2.2306,-2.2329,-2.2276,-2.2271,-2.227,-2.2287,-2.2244,-2.2243,-2.2269,-2.2271,-2.2273,-2.2331,0,0,0,0,0,0,-2.2464,-2.2458,-2.2464,-2.2427,-2.2418,-2.2411,-2.2371,-2.2362,-2.2352,-2.2347,-2.2311,-2.2304,-2.2275,-2.2272,-2.2269,-2.2285,-2.2243,-2.2267,-2.227,-2.2272,-2.2327,-2.2334,-2.2341,0,0,0,0,0,-2.2466,-2.2482,-2.2465,-2.246,-2.2425,-2.2412,-2.2408,-2.2373,-2.2354,-2.236,-2.2335,-2.2306,-2.2286,-2.2273,-2.2269,-2.2284,-2.2266,-2.2269,-2.2272,-2.2324,-2.2333,-2.2341,0,0,0,0,0,0,-2.2521,-2.2476,-2.2456,-2.2461,-2.2441,-2.2402,-2.2409,-2.2384,-2.2369,-2.2364,-2.2323,-2.2315,-2.232,-2.2302,-2.2288,-2.2302,-2.2272,-2.2275,-2.2313,-2.2321,-2.2328,-2.2332,-2.2242,0,0,0,0,0,-2.2534,-2.2527,-2.2488,-2.2496,-2.2487,-2.245,-2.2443,-2.2419,-2.2397,-2.2388,-2.2362,-2.2342,-2.2332,-2.2326,-2.2314,-2.2325,-2.2317,-2.2334,-2.2341,-2.2347,-2.2349,-2.2356,-2.2363,-2.2284,-2.2284,-2.2284,0,0,-2.256,-2.2534,-2.2532,-2.2506,-2.2488,-2.2483,-2.2443,-2.2439,-2.2435,-2.2387,-2.2385,-2.2367,-2.2341,-2.2347,-2.2349,-2.2333,-2.237,-2.2351,-2.2356,-2.2355,-2.236,-2.2368,-2.2374,-2.2286,-2.2285,-2.2285,0,0,-2.2604,-2.2584,-2.2589,-2.2573,-2.2546,-2.2522,-2.2524,-2.249,-2.2476,-2.2474,-2.2438,-2.2434,-2.2416,-2.24,-2.239,-2.2433,-2.2406,-2.2431,-2.2466,-2.2473,-2.248,-2.2485,-2.2502,-2.2508,-2.2433,-2.2433,-2.2434,0,-2.264,-2.263,-2.2595,-2.2594,-2.2584,-2.2542,-2.2548,-2.2533,-2.2505,-2.2499,-2.2482,-2.2461,-2.2441,-2.2444,-2.2455,-2.2448,-2.2449,-2.2434,-2.2482,-2.2487,-2.2491,-2.2506,-2.2513,-2.2437,-2.2436,-2.2436,-2.2436,0,-2.2676,-2.267,-2.2678,-2.2652,-2.2644,-2.2646,-2.2612,-2.2608,-2.2585,-2.2563,-2.2563,-2.2538,-2.2522,-2.2521,-2.2498,-2.2521,-2.2513,-2.2489,-2.2458,-2.2502,-2.2516,-2.2522,-2.2441,-2.244,-2.2439,-2.2438,0,0,-2.2751,-2.2709,-2.2712,-2.2701,-2.2671,-2.2666,-2.2668,-2.2652,-2.265,-2.2633,-2.2633,-2.2621,-2.2601,-2.2589,-2.2565,-2.2571,-2.2609,-2.2547,-2.2546,-2.256,-2.2635,-2.2653,-2.266,-2.2592,-2.2593,-2.2594,-2.2638,0,-2.279,-2.279,-2.276,-2.2769,-2.2764,-2.2726,-2.2728,-2.271,-2.2691,-2.2685,-2.2663,-2.2656,-2.2628,-2.2622,-2.2626,-2.2604,-2.2624,-2.26,-2.2593,-2.2593,-2.26,-2.2667,-2.2685,-2.2728,-2.2643,-2.2644,-2.2644,0,-2.2836,-2.2823,-2.2831,-2.2803,-2.28,-2.2802,-2.2787,-2.2782,-2.2762,-2.2748,-2.2737,-2.271,-2.2711,-2.2683,-2.2684,-2.2669,-2.2665,-2.2654,-2.2655,-2.2652,-2.2621,-2.2667,-2.2741,-2.2747,-2.2652,-2.2652,-2.2651,0,-2.2891,-2.2875,-2.2879,-2.2871,-2.2838,-2.2841,-2.2827,-2.2806,-2.28,-2.2787,-2.2783,-2.2771,-2.2764,-2.2755,-2.2727,-2.2709,-2.2732,-2.2701,-2.2721,-2.2722,-2.2727,-2.2727,-2.2801,-2.2724,-2.2724,-2.2724,-2.2724,0,-2.2938,-2.2945,-2.2904,-2.2906,-2.2913,-2.288,-2.2888,-2.2871,-2.2854,-2.2853,-2.2819,-2.2819,-2.2781,-2.2778,-2.2756,-2.2761,-2.2758,-2.2747,-2.2741,-2.275,-2.2752,-2.2746,-2.2743,-2.2726,-2.2726,-2.2725,-2.2725,0,-2.3,-2.2973,-2.2974,-2.2945,-2.2937,-2.2944,-2.2919,-2.292,-2.29,-2.29,-2.2898,-2.2866,-2.2861,-2.2832,-2.2818,-2.2804,-2.2817,-2.2805,-2.2824,-2.282,-2.2842,-2.2841,-2.2915,-2.2924,-2.2842,-2.2843,-2.2844,0,-2.3032,-2.3036,-2.3008,-2.3006,-2.2994,-2.299,-2.2984,-2.2952,-2.2948,-2.2928,-2.2932,-2.2924,-2.2915,-2.2908,-2.2884,-2.2875,-2.2863,-2.289,-2.2861,-2.2871,-2.2864,-2.2864,-2.2865,-2.2896,-2.2897,-2.2897,-2.2898,0,-2.3092,-2.3079,-2.3071,-2.3061,-2.3055,-2.3045,-2.3032,-2.3032,-2.2997,-2.2994,-2.2988,-2.2982,-2.297,-2.2963,-2.2951,-2.2937,-2.2913,-2.2908,-2.2912,-2.2921,-2.2932,-2.2928,-2.2841,-2.2906,-2.2905,-2.2905,-2.2904,-2.2904,-2.314,-2.3143,-2.3125,-2.3118,-2.3107,-2.3097,-2.3097,-2.3079,-2.3073,-2.3061,-2.3043,-2.3041,-2.3024,-2.3004,-2.2994,-2.2992,-2.2977,-2.2983,-2.2985,-2.2987,-2.2992,-2.2933,-2.2989,-2.2989,-2.2989,-2.2988,-2.2988,0,-2.3198,-2.3185,-2.318,-2.3165,-2.3161,-2.314,-2.3126,-2.3124,-2.3122,-2.3108,-2.3102,-2.3097,-2.3091,-2.3068,-2.3059,-2.3062,-2.3051,-2.3061,-2.3061,-2.3059,-2.3005,-2.3002,-2.3071,-2.3071,-2.3071,-2.3071,-2.3071,-2.3071,-2.3228,-2.3234,-2.3219,-2.3219,-2.3206,-2.3204,-2.3198,-2.319,-2.3179,-2.3175,-2.317,-2.3155,-2.3139,-2.3129,-2.3124,-2.3117,-2.3116,-2.313,-2.312,-2.307,-2.3062,-2.3054,-2.3052,-2.313,-2.313,-2.3174,-2.3175,-2.3175]},{"header":{"parameterUnit":"m.s-1","parameterCategory":1,"la1":30.2991,"la2":30.254,"lo1":-89.0895,"lo2":-89.0444,"dy":0.0017,"dx":0.0017,"nx":28,"ny":28,"refTime":"2025-09-17T09:00:00:Z","depth":0,"parameterNumber":3,"parameterNumberName":"V-component_of_WINDS"},"data":[0,0,0,0,0,0,0,0,0,0,0,0,0,0,0,0,0,0,0,0,0,0,0,0,0,0,0,0,0,0,0,0,0,0,0,0,0,0,0,0,0,0,0,0,0,0,0,0,0,0,0,0,0,0,0,0,0,0,2.359,2.359,0,2.361,2.361,2.361,2.3683,2.3685,2.3686,2.3688,2.3703,2.3702,2.3701,0,0,0,0,0,0,0,0,0,0,0,0,0,2.361,2.3609,2.359,2.359,2.3591,2.361,2.361,2.3611,2.3683,2.3685,2.3687,2.3689,2.3703,2.3702,2.3701,0,0,0,0,0,0,0,0,0,0,0,0,0,2.3613,2.3609,2.359,2.3629,2.3633,2.361,2.361,2.3611,2.3682,2.3685,2.3687,2.369,2.3704,2.3702,2.37,2.364,0,0,2.3695,2.3694,0,0,0,0,0,0,0,0,2.3612,2.3612,2.3623,2.3626,2.3631,2.3647,2.3623,2.362,2.3682,2.3663,2.3688,2.3691,2.3682,2.3682,2.368,2.364,2.3641,2.3695,2.3694,2.3693,2.3693,0,0,0,0,0,0,0,2.3612,2.3611,2.3598,2.3623,2.3628,2.3644,2.3647,2.3623,2.3658,2.3665,2.3671,2.3672,2.3684,2.3682,2.3681,2.3641,2.3695,2.3694,2.3692,2.3692,2.3552,2.355,0,0,0,0,0,0,2.3607,2.3611,2.3597,2.3598,2.3628,2.3642,2.3645,2.3639,2.3659,2.3664,2.367,2.3676,2.3683,2.3683,2.3682,2.3612,2.3693,2.3692,2.3691,2.3555,2.3552,2.3549,0,0,0,0,0,0,2.3607,2.3605,2.3596,2.3606,2.3606,2.3639,2.3631,2.3638,2.3636,2.3663,2.3669,2.3661,2.3685,2.3684,2.365,2.3613,2.3691,2.3689,2.3558,2.3554,2.355,2.3471,0,0,0,0,0,0,2.3607,2.3605,2.3583,2.3605,2.3605,2.3565,2.3629,2.3637,2.3633,2.364,2.3656,2.3661,2.3687,2.3652,2.3648,2.3612,2.3688,2.3562,2.3556,2.3552,2.3477,2.3464,2.3454,0,0,0,0,0,2.3608,2.3558,2.3581,2.3579,2.3579,2.3563,2.3563,2.3596,2.363,2.3607,2.3625,2.366,2.3618,2.3648,2.3644,2.3607,2.3564,2.3558,2.3552,2.3482,2.3467,2.3454,0,0,0,0,0,0,2.3529,2.3562,2.3588,2.3545,2.3551,2.3575,2.3548,2.3579,2.3575,2.3581,2.3622,2.3624,2.3584,2.3592,2.3625,2.3549,2.3597,2.359,2.3545,2.3531,2.352,2.3518,2.3686,0,0,0,0,0,2.3507,2.3493,2.3522,2.348,2.3483,2.3515,2.3509,2.3534,2.3541,2.3544,2.3559,2.3563,2.3551,2.3542,2.3532,2.3479,2.3483,2.3452,2.344,2.3431,2.3423,2.3395,2.3382,2.3529,2.3529,2.3529,0,0,2.346,2.3477,2.3465,2.3465,2.3473,2.3455,2.3516,2.3495,2.3482,2.354,2.3509,2.352,2.3527,2.3483,2.3464,2.3489,2.3384,2.3423,2.3415,2.3413,2.3388,2.3374,2.3361,2.3525,2.3526,2.3527,0,0,2.3366,2.3378,2.3345,2.3352,2.3364,2.3386,2.3377,2.3398,2.3408,2.3378,2.3421,2.3406,2.3384,2.3387,2.3386,2.3295,2.3327,2.3291,2.323,2.3203,2.3191,2.3181,2.3147,2.3135,2.3284,2.3284,2.3284,0,2.3306,2.3283,2.3323,2.33,2.3298,2.3352,2.3318,2.3323,2.3329,2.3326,2.3355,2.3329,2.3338,2.3295,2.3273,2.3271,2.3262,2.3288,2.319,2.318,2.3171,2.3139,2.3127,2.3279,2.328,2.328,2.3281,0,2.3208,2.3192,2.3164,2.3171,2.3167,2.3138,2.3172,2.3162,2.3189,2.3207,2.3175,2.3188,2.3182,2.3174,2.3199,2.3135,2.315,2.3183,2.3232,2.3152,2.3122,2.3111,2.3273,2.3274,2.3276,2.3277,0,0,2.3063,2.3095,2.3083,2.3087,2.3105,2.3092,2.3066,2.3062,2.3052,2.3056,2.3033,2.3015,2.3046,2.3045,2.3071,2.3047,2.2972,2.3083,2.3084,2.3061,2.2901,2.2875,2.286,2.2995,2.2993,2.2991,2.29,0,2.2973,2.2931,2.2966,2.2917,2.2902,2.2953,2.293,2.2938,2.2954,2.2943,2.2961,2.2947,2.299,2.299,2.2969,2.2986,2.294,2.2993,2.2972,2.2971,2.2967,2.2845,2.2817,2.273,2.2889,2.2887,2.2886,0,2.2861,2.2862,2.2811,2.2833,2.2828,2.2806,2.2805,2.2795,2.2804,2.2818,2.2817,2.285,2.2824,2.2873,2.2837,2.2872,2.2866,2.2873,2.2871,2.2868,2.2922,2.2838,2.2704,2.269,2.2869,2.287,2.2871,0,2.2758,2.2746,2.2715,2.2717,2.2741,2.2725,2.2734,2.2747,2.2742,2.2741,2.2738,2.2733,2.273,2.2725,2.2755,2.2789,2.2715,2.2767,2.2724,2.2723,2.2705,2.2705,2.2566,2.2703,2.2704,2.2704,2.2704,0,2.2653,2.2619,2.2669,2.2649,2.2613,2.2654,2.2617,2.2632,2.2642,2.2625,2.2669,2.2652,2.2694,2.268,2.2703,2.2669,2.2668,2.2677,2.2683,2.2672,2.2671,2.2667,2.2673,2.27,2.2701,2.2702,2.2702,0,2.2531,2.2563,2.2532,2.2559,2.2565,2.2537,2.2559,2.2541,2.2562,2.2539,2.2536,2.2568,2.2555,2.2585,2.2575,2.2591,2.2543,2.2559,2.254,2.2544,2.2499,2.2502,2.2352,2.2333,2.2483,2.2482,2.2481,0,2.2461,2.2436,2.2461,2.2454,2.2461,2.2449,2.2445,2.2485,2.2478,2.2488,2.2468,2.2459,2.2454,2.243,2.2451,2.2444,2.2459,2.2407,2.2458,2.2448,2.2457,2.2457,2.2454,2.2396,2.2394,2.2392,2.2391,0,2.2332,2.2349,2.2343,2.2342,2.2337,2.2338,2.2341,2.2333,2.2375,2.2365,2.2354,2.2349,2.2341,2.233,2.2328,2.2336,2.237,2.2375,2.2365,2.2352,2.2341,2.2345,2.2509,2.2378,2.2379,2.238,2.2381,2.2382,2.2233,2.2214,2.2228,2.222,2.2227,2.223,2.2215,2.2235,2.2226,2.2223,2.2247,2.2229,2.2239,2.2241,2.2245,2.2231,2.2254,2.2239,2.2235,2.2231,2.2223,2.2345,2.2231,2.2231,2.2232,2.2232,2.2232,0,2.2105,2.2117,2.2109,2.2114,2.2107,2.2143,2.2149,2.214,2.2125,2.2132,2.2127,2.2113,2.2103,2.2125,2.2118,2.2103,2.2118,2.2099,2.21,2.2101,2.2203,2.2212,2.2087,2.2087,2.2087,2.2087,2.2087,2.2087,2.2037,2.2007,2.2026,2.2,2.2012,2.1997,2.1997,2.2,2.2006,2.1989,2.1982,2.1997,2.201,2.2005,2.1997,2.2004,2.1999,2.1974,2.1986,2.208,2.2094,2.2107,2.2116,2.1973,2.1973,2.1885,2.1884,2.1884]}]]